Regional Weather Roundup
Issued by NWS

Home | Current Version | Previous Version | Text Only | Print | Product List | Glossary Off
Versions: 1 2 3 4 5 6 7 8 9 10 11 12 13 14 15 16 17 18 19 20 21 22 23 24 25 26 27 28 29 30 31 32 33 34 35 36 37 38 39 40 41 42 43 44 45 46 47 48 49 50

000
ASUS43 KMKX 180000
RWRWI

WISCONSIN REGIONAL WEATHER ROUNDUP
NATIONAL WEATHER SERVICE MILWAUKEE/SULLIVAN WI
700 PM CDT THU APR 17 2014

NOTE: "FAIR" INDICATES FEW OR NO CLOUDS BELOW 12,000 FEET WITH NO
SIGNIFICANT WEATHER AND/OR OBSTRUCTIONS TO VISIBILITY.

WIZ001-002-006>008-014>016-023>028-180100-
NORTHWEST WISCONSIN

CITY           SKY/WX    TMP DP  RH WIND       PRES   REMARKS
SUPERIOR ARPT  CLOUDY    38  24  56 N6        30.28S WCI  33
ASHLAND        CLOUDY    35  26  69 VRB7      30.28S WCI  29
6HR MIN TEMP:  33; 6HR MAX TEMP:  38;

HAYWARD        CLOUDY    34  25  69 CALM      30.27S
6HR MIN TEMP:  31; 6HR MAX TEMP:  36;

SIREN          PTCLDY    39  22  50 N3        30.27F
RICE LAKE      CLOUDY    35  28  73 N3        30.29F
LADYSMITH      CLOUDY    35  28  77 NW5       30.29R WCI  31
EAU CLAIRE     CLOUDY    38  27  64 N6        30.27F WCI  33
6HR MIN TEMP:  37; 6HR MAX TEMP:  42;

MENOMONIE      CLOUDY    39  27  61 NW7       30.28F WCI  34
NEW RICHMOND   CLEAR     38  25  59 NW6       30.29S WCI  34
OSCEOLA        CLEAR     39  26  59 W6        30.31F WCI  35
$$

WIZ003>005-009-010-017-018-180100-
NORTH CENTRAL WISCONSIN

CITY           SKY/WX    TMP DP  RH WIND       PRES   REMARKS
WOODRUFF       CLOUDY    34  30  85 NW6       30.23S WCI  29
RHINELANDER    CLOUDY    33  28  81 W7        30.22S WCI  27
6HR MIN TEMP:  33; 6HR MAX TEMP:  36;

EAGLE RIVER    CLOUDY    33  29  86 NW7       30.22R WCI  27
LAND O LAKES   CLOUDY    33  31  93 NW8       30.22S WCI  26
PHILLIPS       CLOUDY    32  28  83 NW6       30.24S WCI  26
TOMAHAWK       CLOUDY    33  30  86 CALM      30.23F
MEDFORD        CLOUDY    33  29  84 NW9       30.24S WCI  25
MERRILL        CLOUDY    36  31  82 CALM      30.23S
$$

WIZ029-030-035-036-043>047-180100-
CENTRAL WISCONSIN

CITY           SKY/WX    TMP DP  RH WIND       PRES   REMARKS
WAUSAU         CLOUDY    37  30  75 W9        30.23R WCI  30
6HR MIN TEMP:  37; 6HR MAX TEMP:  41;

MOSINEE        CLOUDY    36  32  87 NW9       30.25R WCI  29
MARSHFIELD     CLOUDY    38  30  73 NW8       30.25R WCI  32
6HR MIN TEMP:  38; 6HR MAX TEMP:  42;

STEVENS POINT  CLOUDY    37  31  78 NW6       30.26R WCI  33
WAUPACA        CLOUDY    45  34  65 W13       30.25R
WAUTOMA        NOT AVBL
WISC RAPIDS    CLOUDY    39  31  72 NW10      30.27R WCI  32
6HR MIN TEMP:  39; 6HR MAX TEMP:  47;

CAMP DOUGLAS   NOT AVBL
$$

WIZ011>013-019>022-031-037>040-048>050-180100-
NORTHEAST WISCONSIN

CITY           SKY/WX    TMP DP  RH WIND       PRES   REMARKS
ANTIGO         CLOUDY    35  32  88 NW9       30.22R WCI  28
STURGEON BAY   PTCLDY    43  32  65 N6        30.22S
6HR MIN TEMP:  43; 6HR MAX TEMP:  46;

GREEN BAY      CLOUDY    48  39  71 W8        30.22R
6HR MIN TEMP:  48; 6HR MAX TEMP:  52;

MANITOWOC      NOT AVBL
APPLETON       MOCLDY    46  36  66 W14       30.22R
CLINTONVILLE   CLOUDY    45  34  65 NW12G17   30.23R
OSHKOSH        CLOUDY    49  36  61 NW13      30.22R
6HR MIN TEMP:  49; 6HR MAX TEMP:  55;

$$

WIZ032>034-041-042-053>061-180100-
SOUTHWEST WISCONSIN

CITY           SKY/WX    TMP DP  RH WIND       PRES   REMARKS
LA CROSSE      CLOUDY    40  29  64 NW7       30.28S
6HR MIN TEMP:  40; 6HR MAX TEMP:  43;

SPARTA         CLOUDY    40  31  69 NW7       30.28S
VIROQUA        CLOUDY    39  32  77 NW7       30.25S WCI  34
BOSCOBEL       CLEAR     48  32  53 W7        30.25R
6HR MIN TEMP:  48; 6HR MAX TEMP:  53;

PRAIRIE DU CHI CLEAR     46  32  57 N10       30.25S
PLATTEVILLE    FAIR      50  35  56 W9        30.24R
$$

WIZ056-057-062-063-064-067-068-180100-
SOUTH CENTRAL WISCONSIN

CITY           SKY/WX    TMP DP  RH WIND       PRES   REMARKS
BARABOO/DELLS  PTCLDY    45  33  63 N8        30.23S
LONE ROCK      NOT AVBL
WATERTOWN      MOCLDY    52  37  57 W7        30.20S
MADISON        MOCLDY    53  36  52 N9        30.22R
6HR MIN TEMP:  49; 6HR MAX TEMP:  56;

MIDDLETON      FAIR      55  35  47 NW7       30.21S
MONROE         PTCLDY    54  35  49 W8        30.20S
JANESVILLE     CLEAR     55  36  47 NW7       30.20S
$$

WIZ051-052-058>065-066-070>072-180100-
SOUTHEAST WISCONSIN

CITY           SKY/WX    TMP DP  RH WIND       PRES   REMARKS
MILWAUKEE      MOCLDY    55  36  48 W3        30.22S
6HR MIN TEMP:  51; 6HR MAX TEMP:  56;

WAUKESHA       PTCLDY    52  37  58 W12       30.21S
MILWAUKEE/TIMM NOT AVBL
RACINE         PTCLDY    54  38  54 W5        30.22S
6HR MIN TEMP:  53; 6HR MAX TEMP:  57;

BURLINGTON     PTCLDY    52  37  56 W6        30.20S
KENOSHA        MOCLDY    53  38  56 W7        30.20S
6HR MIN TEMP:  53; 6HR MAX TEMP:  57;

FOND DU LAC    CLOUDY    51  37  58 W10       30.21R
6HR MIN TEMP:  48; 6HR MAX TEMP:  55;

SHEBOYGAN      CLOUDY    52  38  58 NW7       30.19R
6HR MIN TEMP:  49; 6HR MAX TEMP:  54;

WEST BEND      MOCLDY    52  34  50 SW6       30.20S
JUNEAU         CLOUDY    51  34  52 NW6       30.22R
$$

LSZ147-162-180100-
LAKE SUPERIOR

STATION/POSITION TIME  TEMP    WIND        PRES    WAVE
                       AIR SEA DIR/SP/G            HT/PER
                 (UTC) (F)     (DEG/KT/KT) (MB)    (FT/S)
DEVILS ISLAND    2300   33     260/  7/  8 1026.0R
PORT WING        2300   35     280/  4/  5 1025.4R
SAXON HARBOR     2300             CALM     1025.1
$$

LMZ867-665-643>646-180100-
LAKE MICHIGAN

STATION/POSITION TIME  TEMP    WIND        PRES    WAVE
                       AIR SEA DIR/SP/G            HT/PER
                 (UTC) (F)     (DEG/KT/KT) (MB)    (FT/S)
NORTHPORT PIER   2300   39     340/  1/  1 1023.4R
SISTER BAY       2323   39        CALM       N/A
KEWAUNEE LAKESHO 2300   40      30/  5/  7 1023.2R
SHEBOYGAN LAKESH 2300   47     160/ 13/ 13 1022.8R
PORT WASHINGTON  2300   55     260/  7/ 12 1023.0
MILWAUKEE LAKESH 2300   54     280/  5/  7   N/A
KENOSHA   LAKESH 2300   56     300/  7/ 10   N/A
$$

TC  - TEMPERATURE IN CELSIUS
VSB - VISIBILITY IN STATUTE MILES
WCI - WIND CHILL INDEX
HX  - HEAT INDEX




USA.gov is the U.S. government's official web portal to all federal, state and local government web resources and services.